Regional Weather Roundup
Issued by NWS

Home | Current Version | Previous Version | Graphics & Text | Print | Product List | Glossary On
Versions: 1 2 3 4 5 6 7 8 9 10 11 12 13 14 15 16 17 18 19 20 21 22 23 24 25 26 27 28 29 30 31 32 33 34 35 36 37 38 39 40 41 42 43 44 45 46 47 48 49 50
083
ASUS45 KCYS 260010
RWRWY

WYOMING REGIONAL WEATHER ROUNDUP
NATIONAL WEATHER SERVICE CHEYENNE WY
600 PM MDT SAT MAR 25 2017

NOTE:  "FAIR" INDICATES FEW OR NO CLOUDS BELOW 12,000 FEET
WITH NO SIGNIFICANT WEATHER AND/OR OBSTRUCTIONS TO VISIBILITY.

WYZ001-260100-
YELLOWSTONE NATIONAL PARK

CITY           SKY/WX    TMP DP  RH WIND       PRES   REMARKS
LK YELLOWSTONE   N/A     35  22  58 VRB3      29.94S
6HR MIN TEMP:  35; 6HR MAX TEMP:  38;

W YELLOWSTONE  NOT AVBL

$$
WYZ002>013-054>058-071-098>099-260100-
NORTHERN WYOMING

CITY           SKY/WX    TMP DP  RH WIND       PRES   REMARKS
JACKSON        PTSUNNY   41  28  60 W14       29.92
CODY           FAIR      42  32  67 NW9       29.92S
GREYBULL       LGT RAIN  46  41  82 E7        29.87S
6HR MIN TEMP:  46; 6HR MAX TEMP:  55; 6HR PCP:  0.04;

WORLAND        CLOUDY    48  41  76 N12       29.87R
6HR MIN TEMP:  48; 6HR MAX TEMP:  55; 6HR PCP: TRACE;

SHERIDAN       LGT RAIN  45  40  82 NW9       29.92S
6HR MIN TEMP:  45; 6HR MAX TEMP:  51; 6HR PCP:  0.01;

BUFFALO        CLOUDY    45  36  70 N12       29.91S
6HR MIN TEMP:  45; 6HR MAX TEMP:  54;

GILLETTE       FAIR      52  34  50 N18       29.85F
HULETT         FAIR      54  32  43 N12       29.87S
NEWCASTLE      FAIR      63  23  22 S3        29.80F

$$
WYZ014>020-022>026-101>103-260100-
CENTRAL WYOMING

CITY           SKY/WX    TMP DP  RH WIND       PRES   REMARKS
BIG PINEY      LGT RAIN  35  34  96 N7        29.93S FOG     WCI  29
6HR MIN TEMP:  35; 6HR MAX TEMP:  38; 6HR PCP:  0.14;

PINEDALE       LGT SNOW  32  32 100 NW8       29.93S VSB 3/4 WCI  25
DUBOIS         CLOUDY    36  28  75 W15       29.89S WCI  26
LANDER         PTSUNNY   50  34  54 SE13      29.83F
6HR MIN TEMP:  48; 6HR MAX TEMP:  53; 6HR PCP: TRACE;

RIVERTON       CLOUDY    49  35  58 NE3       29.85S
6HR MIN TEMP:  48; 6HR MAX TEMP:  54; 6HR PCP: TRACE;

CASPER         PTSUNNY   55  30  38 N5        29.84S
6HR MIN TEMP:  53; 6HR MAX TEMP:  56;

DOUGLAS        FAIR      59  28  30 N3        29.83F
6HR MIN TEMP:  56; 6HR MAX TEMP:  61;


$$
WYZ021-027>030-104>119-260100-
SOUTHERN WYOMING

CITY           SKY/WX    TMP DP  RH WIND       PRES   REMARKS
EVANSTON       LGT SNOW  34  31  88 N10       29.94S VSB 1   WCI  26
6HR MIN TEMP:  34; 6HR MAX TEMP:  40; 6HR PCP: TRACE;

FORT BRIDGER   LGT RAIN  39  39  99 NW13      29.95S WCI  31
ROCK SPRINGS   LGT RAIN  43  36  76 NW15      29.88R
6HR MIN TEMP:  43; 6HR MAX TEMP:  52; 6HR PCP: TRACE;

DIXON          LGT RAIN  52  29  40 W12       29.90S
RAWLINS        CLOUDY    52  24  33 SW10      29.87S
6HR MIN TEMP:  52; 6HR MAX TEMP:  55;

SARATOGA       CLOUDY    52  21  30 NW5       29.87F
LARAMIE        FAIR      51  22  31 S22       29.86S
6HR MIN TEMP:  50; 6HR MAX TEMP:  57;

CHEYENNE       FAIR      54  19  25 S14       29.87F
6HR MIN TEMP:  54; 6HR MAX TEMP:  60;

TORRINGTON     FAIR      63  24  22 E7        29.80F
6HR MIN TEMP:  57; 6HR MAX TEMP:  66;

PINE BLUFFS    FAIR      59  27  29 SE8       29.86F

$$




USA.gov is the U.S. government's official web portal to all federal, state and local government web resources and services.